Weather History for LHSN - February, 2014

Change the Weather History Date:

Saturday, February 1, 2014

  Actual Average (LHBP) Record (LHBP)
Temperature  
Mean Temperature 24 °F -  
Max Temperature 29 °F 37 °F 55 °F (2000)
Min Temperature 18 °F 22 °F 6 °F (1998)
Degree Days  
Heating Degree Days 42    
Moisture  
Dew Point 20 °F    
Average Humidity 76    
Maximum Humidity 86    
Minimum Humidity 59    
Precipitation  
Precipitation 0.00 in - - ()
Sea Level Pressure  
Sea Level Pressure 30.26 in    
Wind  
Wind Speed 4 mph ()    
Max Wind Speed 9 mph    
Max Gust Speed -    
Visibility 5.9 miles    
Events Rain    
Averages and records for this station are not official NWS values.
T = Trace of Precipitation, MM = Missing Value Source: Averaged Metar Reports

Daily Weather History Graph

Daily Weather History Graph

Search for Another Location

Airport or City:

Trip Planner

Search our weather history database for the weather conditions in past years. The results will help you decide how hot, cold, wet, or windy it might be!

Date:

Astronomy

Feb. 01, 2014 Rise Set
Actual Time 7:04 AM CET 4:41 PM CET
Civil Twilight 6:31 AM CET 5:13 PM CET
Nautical Twilight 5:55 AM CET 5:50 PM CET
Astronomical Twilight 5:19 AM CET 6:26 PM CET
Moon 7:32 AM CET (2/1) 7:07 PM CET (2/1)
Length of Visible Light 10h 41m
Length of Day
9h 36m
Waxing Crescent, 4% of the Moon is Illuminated
Feb 1
Waxing Crescent
Feb 6
First Quarter
Feb 15
Full
Feb 22
Last Quarter
Mar 1
New

Hourly Weather History & Observations

Time (CET) Temp. Windchill Dew Point Humidity Pressure Visibility Wind Dir Wind Speed Gust Speed Precip Events Conditions
12:00 AM 24 °F - 17 °F 64% 30.35 in 6 mi South 8.9 mph - -   Clear
12:15 AM 23.0 °F 13.2 °F 15.8 °F 74% 30.30 in - South 8.9 mph - N/A   Clear
12:45 AM 23.0 °F 13.2 °F 17.6 °F 80% 30.30 in - SSW 8.9 mph - N/A   Clear
1:00 AM 29 °F - 26 °F 82% 30.18 in 5 mi Calm Calm - -   Overcast
1:15 AM 23.0 °F 13.2 °F 15.8 °F 74% 30.33 in - SSW 8.9 mph - N/A   Clear
1:45 AM 23.0 °F 14.9 °F 15.8 °F 74% 30.33 in - SSW 6.7 mph - N/A   Clear
2:00 AM 23 °F - 16 °F 66% 30.35 in 9 mi SSW 6.7 mph - -   Clear
2:15 AM 23.0 °F 13.2 °F 15.8 °F 74% 30.30 in - South 8.9 mph - N/A   Clear
2:45 AM 23.0 °F 14.9 °F 15.8 °F 74% 30.30 in - South 6.7 mph - N/A   Clear
3:00 AM 23 °F - 16 °F 65% 30.34 in 9 mi South 6.7 mph - -   Clear
3:15 AM 23.0 °F 14.9 °F 15.8 °F 74% 30.30 in - South 6.7 mph - N/A   Clear
3:45 AM 23.0 °F 17.1 °F 15.8 °F 74% 30.30 in - SE 4.5 mph - N/A   Clear
4:00 AM 22 °F - 16 °F 68% 30.33 in 12 mi SE 4.5 mph - -   Clear
4:15 AM 21.2 °F 15.0 °F 15.8 °F 80% 30.27 in - SE 4.5 mph - N/A   Clear
4:45 AM 21.2 °F 15.0 °F 15.8 °F 80% 30.27 in - SE 4.5 mph - N/A   Clear
5:00 AM 21 °F - 16 °F 72% 30.31 in 12 mi SE 4.5 mph - -   Clear
5:15 AM 21.2 °F - 15.8 °F 80% 30.27 in - SE 2.2 mph - N/A   Clear
5:45 AM - - - N/A% - 3.1 mi SE 6.7 mph - N/A   Clear
6:00 AM 19 °F - 15 °F 78% 30.31 in 12 mi Calm Calm - -   Mostly Cloudy
6:15 AM 19.4 °F - 15.8 °F 86% 30.27 in - NE 2.2 mph - N/A   Clear
6:45 AM 19.4 °F 12.9 °F 15.8 °F 86% 30.27 in - NNE 4.5 mph - N/A   Clear
7:00 AM 19 °F - 15 °F 79% 30.32 in 6 mi NNE 4.5 mph - -   Clear
7:15 AM 19.4 °F - 15.8 °F 86% 30.30 in - NNE 2.2 mph - N/A   Clear
7:45 AM 19.4 °F 12.9 °F 15.8 °F 86% 30.30 in - ENE 4.5 mph - N/A   Clear
8:00 AM 19 °F - 16 °F 82% 30.33 in 6 mi ENE 4.5 mph - -   Partly Cloudy
8:15 AM 19.4 °F - 15.8 °F 86% 30.30 in - ENE 2.2 mph - N/A   Clear
8:45 AM - - - N/A% - 5.0 mi SE 6.7 mph - N/A Rain Light Freezing Rain
9:00 AM 21 °F - 17 °F 76% 30.33 in 6 mi Calm Calm - -   Partly Cloudy
9:15 AM 23.0 °F - 17.6 °F 80% 30.30 in - Calm Calm - N/A   Clear
9:45 AM 24.8 °F - 17.6 °F 74% 30.30 in - ENE 2.2 mph - N/A   Clear
10:00 AM 25 °F - 18 °F 66% 30.32 in 6 mi ENE 2.2 mph - -   Partly Cloudy
10:15 AM 26.6 °F 21.3 °F 17.6 °F 69% 30.27 in - East 4.5 mph - N/A   Clear
10:45 AM 26.6 °F 19.2 °F 19.4 °F 74% 30.27 in - ESE 6.7 mph - N/A   Clear
11:00 AM 27 °F - 18 °F 59% 30.31 in 6 mi ESE 6.7 mph - -   Mostly Cloudy
11:15 AM 26.6 °F 19.2 °F 19.4 °F 74% 30.27 in - SSE 6.7 mph - N/A   Clear
11:45 AM - - - N/A% - 5.0 mi SE 6.7 mph - N/A Rain Light Freezing Rain
12:00 PM 27 °F - 19 °F 61% 30.29 in 6 mi ESE 6.7 mph - -   Mostly Cloudy
12:15 PM 28.4 °F 23.4 °F 19.4 °F 69% 30.24 in - ESE 4.5 mph - N/A   Clear
12:45 PM 28.4 °F 23.4 °F 19.4 °F 69% 30.24 in - ESE 4.5 mph - N/A   Clear
1:00 PM 28 °F - 20 °F 61% 30.26 in 6 mi ESE 4.5 mph - -   Partly Cloudy
1:15 PM 28.4 °F 23.4 °F 19.4 °F 69% 30.24 in - East 4.5 mph - N/A   Clear
1:45 PM 28.4 °F 23.4 °F 21.2 °F 74% 30.24 in - East 4.5 mph - N/A   Clear
2:00 PM 29 °F - 20 °F 60% 30.26 in 6 mi East 4.5 mph - -   Partly Cloudy
2:15 PM 28.4 °F 23.4 °F 21.2 °F 74% 30.21 in - SE 4.5 mph - N/A   Clear
2:45 PM - - - N/A% - 3.1 mi East 4.5 mph - N/A   Clear
3:00 PM 29 °F - 21 °F 63% 30.24 in 6 mi East 4.5 mph - -   Partly Cloudy
3:15 PM 28.4 °F - 21.2 °F 74% 30.21 in - Calm Calm - N/A   Clear
3:45 PM 28.4 °F - 23.0 °F 80% 30.21 in - Calm Calm - N/A   Clear
4:00 PM 29 °F - 22 °F 68% 30.25 in 6 mi Calm Calm - -   Mostly Cloudy
4:15 PM 28.4 °F - 21.2 °F 74% 30.21 in - Calm Calm - N/A   Clear
4:45 PM 28.4 °F - 23.0 °F 80% 30.21 in - Calm Calm - N/A   Clear
5:00 PM 29 °F - 23 °F 68% 30.23 in 6 mi Calm Calm - -   Overcast
5:15 PM 28.4 °F - 23.0 °F 80% 30.21 in - Calm Calm - N/A   Clear
5:45 PM - - - N/A% - 3.1 mi Variable 4.5 mph - N/A Rain Light Freezing Rain
6:00 PM 28 °F - 22 °F 69% 30.23 in 6 mi Calm Calm - -   Mostly Cloudy
6:15 PM 26.6 °F - 21.2 °F 80% 30.21 in - Calm Calm - N/A   Clear
6:45 PM 26.6 °F - 23.0 °F 86% 30.18 in - Calm Calm - N/A   Clear
7:00 PM 27 °F - 23 °F 77% 30.23 in 6 mi Calm Calm - -   Overcast
7:15 PM 26.6 °F - 23.0 °F 86% 30.18 in - Calm Calm - N/A   Clear
7:45 PM 28.4 °F - 23.0 °F 80% 30.18 in - Calm Calm - N/A   Clear
8:00 PM 28 °F - 23 °F 73% 30.22 in 6 mi Calm Calm - -   Overcast
8:15 PM 28.4 °F - 23.0 °F 80% 30.18 in - NNE 2.2 mph - N/A   Clear
8:45 PM - - - N/A% - 3.1 mi Variable 4.5 mph - N/A Rain Light Freezing Rain
9:00 PM 28 °F - 24 °F 78% 30.22 in 6 mi NNE 2.2 mph - -   Overcast
9:15 PM 28.4 °F 23.4 °F 24.8 °F 86% 30.18 in 5.0 mi ENE 4.5 mph - N/A   Unknown
9:45 PM 28.4 °F 23.4 °F 24.8 °F 86% 30.18 in 5.0 mi East 4.5 mph - N/A   Unknown
10:00 PM 29 °F - 25 °F 77% 30.21 in 5 mi East 4.5 mph - -   Overcast
10:15 PM 28.4 °F 23.4 °F 24.8 °F 86% 30.15 in 5.0 mi East 4.5 mph - N/A   Unknown
10:45 PM 28.4 °F - 24.8 °F 86% 30.15 in 5.0 mi ESE 2.2 mph - N/A   Unknown
11:00 PM 29 °F - 25 °F 79% 30.20 in 5 mi ESE 2.2 mph - -   Overcast
11:15 PM 28.4 °F - 24.8 °F 86% 30.15 in 5.0 mi SSE 2.2 mph - N/A   Unknown
11:45 PM - - - N/A% - 0.1 mi North - - N/A Rain Light Freezing Rain